Regional Weather Roundup
Issued by NWS

Home | Current Version | Previous Version | Text Only | Print | Product List | Glossary Off
Versions: 1 2 3 4 5 6 7 8 9 10 11 12 13 14 15 16 17 18 19 20 21 22 23 24 25 26 27 28 29 30 31 32 33 34 35 36 37 38 39 40 41 42 43 44 45 46 47 48 49 50

000
ASUS43 KDTX 252110
RWRMI
MICHIGAN HOURLY REGIONAL WEATHER ROUNDUP
NATIONAL WEATHER SERVICE DETROIT/PONTIAC MI
400 PM EST THU DEC 25 2014

NOTE: "FAIR" INDICATES FEW OR NO CLOUDS BELOW 12,000 FEET WITH NO
SIGNIFICANT WEATHER AND/OR OBSTRUCTION TO VISIBILITY.

MIZ047>049-052>055-059>063-066>070-074>076-081>083-252200-
SOUTHEAST LOWER MICHIGAN

CITY           SKY/WX    TMP DP  RH WIND       PRES   REMARKS
ADRIAN         CLOUDY    37  29  72 W14G22    30.04R
ALMA           CLOUDY    36  31  82 SW10      29.97R
ANN ARBOR      CLOUDY    37  29  72 W18G31    30.02R
BAD AXE        CLOUDY    36  32  85 SW16G24   29.94R
DETROIT CITY   CLOUDY    39  28  64 W12       30.03R
DETROIT        CLOUDY    38  30  73 SW13G22   30.03R
FLINT          CLOUDY    38  29  70 SW14G23   30.00R
GROSSE ILE     CLOUDY    37  30  75 SW12      30.03R
HILLSDALE      CLOUDY    36  31  83 W9G20     30.01R
HOWELL         CLOUDY    35  31  85 SW13G20   30.00R

CITY           SKY/WX    TMP DP  RH WIND       PRES   REMARKS
JACKSON        CLOUDY    36  29  75 W10G22    30.01R
LAMBERTVILLE   CLOUDY    37  30  75 W13G24    30.05R
LANSING        CLOUDY    36  29  75 SW14      30.00R
LAPEER         NOT AVBL
MASON          CLOUDY    34  29  80 SW9G16    30.00R
MONROE         CLOUDY    37  32  81 W15       30.03R
MT. CLEMENS    CLOUDY    37  32  81 W15       30.00R
PONTIAC        CLOUDY    35  28  75 SW10      29.99R
PORT HOPE        N/A     38  30  73 W10G22    29.91R
PORT HURON     CLOUDY    37  30  75 SW6       30.00R
TRI CITIES     CLOUDY    38  31  76 SW14      29.96R
YPSILANTI      CLOUDY    40  29  64 SW14      30.03R
$$
MIZ043>046-050>051-056>058-064>065-071>073-077>080-252200-
SOUTHWEST LOWER MICHIGAN

CITY           SKY/WX    TMP DP  RH WIND       PRES   REMARKS
BATTLE CREEK   CLOUDY    37  29  72 SW15      30.01R
BENTON HARBOR  PTSUNNY   38  31  76 SW14G21   30.01R
BIG RAPIDS     CLOUDY    35  32  88 SW9       29.93R
COLDWATER      CLOUDY    36  30  80 SW9       30.02R
HOLLAND        CLOUDY    39  30  70 SW20      29.99R
GRAND RAPIDS   CLOUDY    37  29  72 SW14      29.99R
KALAMAZOO      CLOUDY    38  29  70 SW13      30.02R
MARSHALL       CLOUDY    35  29  80 SW10G17   30.00R
MUSKEGON       MOCLDY    38  30  73 SW18G24   29.97R
$$
MIZ016>042-252200-
NORTHERN LOWER MICHIGAN

CITY           SKY/WX    TMP DP  RH WIND       PRES   REMARKS
ALPENA         CLOUDY    37  30  75 SW14G20   29.86R
BEAVER ISLAND  CLOUDY    36  32  85 SW13G23   29.83R
BELLAIRE       CLOUDY    37  30  75 SW7G21    29.87R
CADILLAC       CLOUDY    33  30  88 SW15G22   29.87R
CHARLEVOIX     CLOUDY    36  32  84 SW18G24   29.87R
FRANKFORT      CLOUDY    37  32  83 SW13G20   29.89R
GAYLORD        CLOUDY    33  30  88 W14       29.83R
GRAYLING       CLOUDY    35  31  84 W10G18    29.87R
HARBOR SPRINGS CLOUDY    37  31  81 SW16G24   29.83R
HOUGHTON LAKE  CLOUDY    34  28  79 SW15G24   29.88R
MANISTEE       CLOUDY    37  28  70 SW12G17   29.91R
OSCODA         CLOUDY    37  31  78 SW15      29.88R
PELLSTON       CLOUDY    37  30  75 W16G28    29.82R
TRAVERSE CITY  CLOUDY    38  30  73 SW8G16    29.86R
$$
MIZ007>008-015-252200-
EASTERN UPPER MICHIGAN

CITY           SKY/WX    TMP DP  RH WIND       PRES   REMARKS
KINROSS        CLOUDY    36  32  87 W10G21    29.78R
MACKINAC ISLAN CLOUDY    36  33  88 SW15G23   29.81R
NEWBERRY       CLOUDY    34  31  90 SW10      29.78R
S. S. MARIE    CLOUDY    36  29  75 SW10      29.77R
$$
MIZ004>006-011>014-085-252200-
CENTRAL UPPER MICHIGAN

CITY           SKY/WX    TMP DP  RH WIND       PRES   REMARKS
MANISTIQUE     CLOUDY    35  32  88 MISG      29.80R
ESCANABA       CLOUDY    36  28  75 SW8G16    29.80R
MENOMINEE      CLOUDY    36  28  75 SW9G16    29.82R
SAWYER-GWINN   CLOUDY    34  30  86 SW10      29.75R
$$
MIZ001>003-009>011-084-252200-
WESTERN UPPER MICHIGAN

CITY           SKY/WX    TMP DP  RH WIND       PRES   REMARKS
IRON MOUNTAIN  CLOUDY    34  28  79 SW3       29.77R
HOUGHTON       CLOUDY    33  29  85 W13       29.72R
COPPER HARBOR    N/A     36  30  79 MISG      29.72R
IRONWOOD       CLOUDY    32  28  86 W12       29.73R
$$

ABBREVIATIONS USED IN REMARKS
   TC - TEMPERATURE IN CELSIUS
  WCI - WIND CHILL INDEX
   HX - HEAT INDEX
  VSB - VISIBILITY



USA.gov is the U.S. government's official web portal to all federal, state and local government web resources and services.